Location: Recife
(8.0585°S, 34.8848°W)
Time: 16:20:31
(UTC-03:00)

Transit 2A - Pass Details

Date: 19 April 2026
Orbit: 594 x 950 km, 66.7° (Epoch: 12 May)

Event Time Altitude Azimuth Distance (km) Brightness Sun altitude
Rises 19:11:35 0° 196° (SSW) 3,424 9.5 -29.1°
Reaches altitude 10° 19:14:00 10° 194° (SSW) 2,530 8.7 -29.7°
Enters shadow 19:15:49 21° 191° (S) 1,887 8.0 -30.2°
